Location: Niedergestelen
(46.3129°N, 7.7822°E)
Time: 16:17:14
(UTC+00:00)

YAOGAN 1 - Pass Details

Date: 01 December 2020
Orbit: 618 x 620 km, 97.9° (Epoch: 27 January)

Event Time Altitude Azimuth Distance (km) Brightness Sun altitude
Exits shadow 17:09:05 22° 63° (ENE) 1,350 3.7 -14.2°
Drops below altitude 10° 17:12:23 10° 13° (NNE) 1,999 4.9 -14.7°
Sets 17:14:56 0° 359° (N) 2,910 5.9 -15.1°
